Back to catalog

DELTA 1 DEB

AliveUNKNOWN
NORAD 10660·DEBRIS·🇺🇸 United States

Launched Jul 29, 1976 from Vandenberg Space Force Base

Loading…

Next Passes (next 24 hours)

TLE

FreshSource: Space-Track

Epoch: Sep 14, 2026, 13:00 UTC

1 10660U 76077W   26257.54191273 -.00000192  00000-0 -23161-2 0  9993
2 10660 102.2331 130.7886 0393803 247.0022 232.6279 11.67400990134515

Track DELTA 1 DEB in real time with AllMySat

Download on the App Store